This is the latest recevied weather packets stored in our database for station/object SV2RCS-13. If no packets are shown the sender has not sent any weather packets the latest 10 day(s).
| Time | Temp. | Humidity | Pressure | Rain* | Wind** | Luminosity | Snow |
|---|---|---|---|---|---|---|---|
| 1777745219 | 11.67° C | 35% | 1017.8 hPa | - | - | - | - |
| 1777744618 | 11.11° C | 35% | 1017.5 hPa | - | - | - | - |
| 1777744020 | 11.11° C | 35% | 1017.2 hPa | - | - | - | - |
| 1777743419 | 11.11° C | 30% | 1017.2 hPa | - | - | - | - |
| 1777742221 | 11.67° C | 32% | 1017.3 hPa | - | - | - | - |
| 1777741619 | 11.67° C | 29% | 1017.1 hPa | - | - | - | - |
| 1777741019 | 11.67° C | 30% | 1017.1 hPa | - | - | - | - |
| 1777740421 | 11.67° C | 30% | 1017.2 hPa | - | - | - | - |
| 1777739219 | 12.22° C | 27% | 1016.8 hPa | - | - | - | - |
| 1777738618 | 12.22° C | 27% | 1016.7 hPa | - | - | - | - |
| 1777738020 | 12.22° C | 26% | 1016.5 hPa | - | - | - | - |
| 1777737424 | 12.78° C | 25% | 1016.6 hPa | - | - | - | - |
| 1777736819 | 12.78° C | 23% | 1016.6 hPa | - | - | - | - |
| 1777736219 | 12.78° C | 22% | 1016.7 hPa | - | - | - | - |
| 1777735619 | 12.22° C | 21% | 1016.9 hPa | - | - | - | - |
| 1777735025 | 12.78° C | 21% | 1016.8 hPa | - | - | - | - |
| 1777734419 | 12.78° C | 21% | 1016.9 hPa | - | - | - | - |
| 1777733819 | 12.78° C | 21% | 1017 hPa | - | - | - | - |
| 1777733219 | 12.78° C | 21% | 1017 hPa | - | - | - | - |
| 1777732619 | 12.78° C | 21% | 1017.2 hPa | - | - | - | - |
| 1777732026 | 12.22° C | 21% | 1017.3 hPa | - | - | - | - |
| 1777731419 | 12.78° C | 21% | 1017.1 hPa | - | - | - | - |
| 1777730219 | 13.33° C | 22% | 1017.3 hPa | - | - | - | - |
| 1777729619 | 12.78° C | 22% | 1017.3 hPa | - | - | - | - |
| 1777729019 | 12.78° C | 25% | 1017.5 hPa | - | - | - | - |
* Rain since midnight (hover to see other rain measurements)
** Current wind speed in m/s (hover to see current wind gust speed)